STARLINK-38121, 100156

Orbit data source: Space-Track

STARLINK-38121, 100156 is a payload satellite owned by SpaceX/Seattle (US) in SSO that was launched on Sat, 25 Jul 2026 UTC launched from the Air Force Western Test Range (AFWTR). Payload-class satellites include a variety of spacecraft equipped with specific instruments for various scientific and technological missions. These include communications satellites like Starlink; space stations such as the ISS; scientific satellites like the Hubble; Earth observation satellites from companies like Planet Labs, Umbra, and HawkEye 360; GPS; miniature CubeSats for education and research; and military/defense satellites.

Not visible in the next 10 days
Identifier
100156, 2026-171J
Orbit
SSO
Country
Flag of USUS
Related business
Manufacturer
SpaceX/Seattle
Mission
Operational spacecraft
Bus & Motor
STARLINK V2MO, Unknown motor
Mass
575 kg wet, ~530 kg dry
Launch date (UTC)
2026-07-25 (3 weeks ago)
Launch vehicle
Unknown
Launch site
Air Force Western Test Range (AFWTR)
Object type
Payload
Rocket body
Debris
Shape & HBR
BOX + PAN, 17.7 m
Radar Cross Section
RCS unknown

Expand to show TLE details & history
Last TLE update: 9 hours ago

TLE from 9 hours ago
0 STARLINK-38121
1 A0156U 26171J   26227.54930215  .00118465  00000-0  78244-3 0  9990
2 A0156  97.2824 259.3969 0000157 264.3574  95.7673 15.75240480  3313
Epoch: 2026-08-15T13:10Z
TLE epoch observation values (Epoch: 2026-08-15T13:10:59.705Z)
Latitude
-0.00008°
Longitude
97.68956°
Altitude
347.126 km
Speed
7.701 km/s
True Right ascension
17h 17m 35s
True Declination
0° 00' 00"
Sunlit
Object was in full shadow at epoch
Visualization orbit readout
Latitude
Unknown
Longitude
Unknown
Altitude
Unknown
Speed
Unknown
Apparent Right ascension
Unknown
Apparent Declination
Unknown
Sunlit
N/A
Visualization observer readout
Local Sidereal Time
12:49:16
Azimuth
Unknown
Elevation
Unknown
Doppler factor
Unknown
Orbital elements
Apogee altitude
340.94 km
Perigee altitude
340.729 km
Semi-major axis
6,718.971 km
Eccentricity
0.00002
Inclination
97.2824°
RAAN
259.3969°
Arg. of periapsis
264.3574°
True anomaly
95.76909°
Mean anomaly
95.7673°
Eccentric anomaly
95.76819°
Mean motion
3.94084 °/min
Orbital period
91.35 mins
BSTAR
0.00078244
Loading maneuver chart data...
Computing Atmospheric mass density...
Loading historical data...
Loading historical data...
Loading historical data...
Loading historical data...
Loading historical data...
Loading historical data...
Loading historical data...

Documentation

Showing up to 5 results
|